Regional Weather Roundup
Issued by NWS

Home | Current Version | Previous Version | Graphics & Text | Print | Product List | Glossary On
Versions: 1 2 3 4 5 6 7 8 9 10 11 12 13 14 15 16 17 18 19 20 21 22 23 24 25 26 27 28 29 30 31 32 33 34 35 36 37 38 39 40 41 42 43 44 45 46 47 48 49 50
000
ASUS45 KBOI 251210
RWRID

IDAHO REGIONAL WEATHER ROUNDUP
NATIONAL WEATHER SERVICE BOISE ID
600 AM MDT WED APR 25 2018

NOTE: "FAIR" INDICATES FEW OR NO CLOUDS BELOW 12000 FEET
WITH NO SIGNIFICANT WEATHER AND/OR OBSTRUCTIONS TO VISIBILITY

IDZ012-014-251300-
SOUTHWEST IDAHO


CITY           SKY/WX    TMP DP  RH WIND       PRES   REMARKS
BOISE          PTCLDY    46  31  55 S10       30.17S
CALDWELL       PTCLDY    45  32  60 E9        30.16F
MOUNTAIN HOME  PTCLDY    42  35  77 CALM      30.18S
$$

IDZ016-017-251300-
SOUTHCENTRAL IDAHO


CITY           SKY/WX    TMP DP  RH WIND       PRES   REMARKS
BURLEY         CLEAR     35  31  85 N7        30.22S WCI  29
JEROME         CLEAR     42  30  62 NE15      30.21F
TWIN FALLS     PTCLDY    41  27  57 S9        30.21S
$$

IDZ019>023-251300-
SOUTHEAST IDAHO


CITY           SKY/WX    TMP DP  RH WIND       PRES   REMARKS
IDAHO FALLS    CLEAR     30  27  88 N6        30.28F WCI  24
POCATELLO      CLEAR     30  27  88 S5        30.25F WCI  25
REXBURG        CLEAR     31  26  82 NE5       30.29S WCI  26
$$

IDZ006-010-011-018-031-032-251300-
CENTRAL IDAHO MOUNTAINS


CITY           SKY/WX    TMP DP  RH WIND       PRES   REMARKS
MCCALL         CLEAR     32  28  85 NE3       30.21S
HAILEY         CLEAR     34  27  75 NW12      30.30F WCI  25
STANLEY          N/A     24  21  88 S3        30.29F
SALMON         CLEAR     29  25  85 CALM      30.26F
CHALLIS        CLEAR     32  19  58 CALM      30.27F
$$

IDZ002-004-006-007-026-251300-
NORTHERN IDAHO


CITY           SKY/WX    TMP DP  RH WIND       PRES   REMARKS
LEWISTON       MOCLDY    52  38  58 E3        30.08F
LOWELL           N/A     39  33  79 N6        30.22S WCI  35
COEUR D`ALENE  CLOUDY    41  34  76 NE8       30.09S
MULLAN PASS    MOCLDY    45  24  43 VRB6      30.14F
$$



USA.gov is the U.S. government's official web portal to all federal, state and local government web resources and services.